When you browse on this site, cookies collect data to enhance your experience and personalize the content and advertising you see.
Visit our Privacy Policy to learn more. By continuing to use the site, you agree to this use of cookies and data.
  • In Romania
  • List of Countries
  • For 7 days
  • Water Temperature
  • Weather Map
  • Weather Widgets
  • user-avatar
    Login

    Hourly Weather Porto-Novo

    Today, 21 January, Tuesday

    Time Temperature Precipitation Wind Pressure Humidity
    00:00 +27°C° 0 mm 2 mps 757 mmHg 81%
    01:00 +27°C° 0 mm 2 mps 756 mmHg 83%
    02:00 +26°C° 0 mm 2 mps 756 mmHg 84%
    03:00 +26°C° 0 mm 2 mps 756 mmHg 86%
    04:00 +26°C° 0 mm 1 mps 756 mmHg 87%
    05:00 +25°C° 0 mm 1 mps 757 mmHg 88%
    06:00 +25°C° 0 mm 1 mps 757 mmHg 89%
    07:00 +28°C° 0 mm 1 mps 758 mmHg 76%
    08:00 +31°C° 0 mm 1 mps 758 mmHg 62%
    09:00 +32°C° 0 mm 0 mps 758 mmHg 49%
    10:00 +35°C° 0 mm 1 mps 758 mmHg 43%
    11:00 +37°C° 0 mm 1 mps 757 mmHg 36%
    12:00 +40°C° 0 mm 2 mps 757 mmHg 30%
    13:00 +38°C° 0 mm 2 mps 756 mmHg 35%
    14:00 +37°C° 0 mm 3 mps 755 mmHg 39%
    15:00 +36°C° 0 mm 4 mps 754 mmHg 44%
    16:00 +34°C° 0 mm 4 mps 754 mmHg 51%
    17:00 +33°C° 0 mm 4 mps 754 mmHg 57%
    18:00 +30°C° 0 mm 4 mps 754 mmHg 64%
    19:00 +30°C° 0 mm 4 mps 755 mmHg 67%
    20:00 +29°C° 0 mm 4 mps 756 mmHg 70%
    21:00 +29°C° 0 mm 4 mps 756 mmHg 72%
    22:00 +28°C° 0 mm 3 mps 756 mmHg 75%
    23:00 +28°C° 0 mm 3 mps 756 mmHg 78%

    Tomorrow, 22 January, Wednesday

    Time Temperature Precipitation Wind Pressure Humidity
    00:00 +27°C° 0 mm 2 mps 756 mmHg 80%
    01:00 +27°C° 0 mm 2 mps 756 mmHg 82%
    02:00 +27°C° 0 mm 3 mps 756 mmHg 83%
    03:00 +27°C° 0 mm 3 mps 756 mmHg 84%
    04:00 +26°C° 0 mm 2 mps 756 mmHg 86%
    05:00 +26°C° 0 mm 1 mps 757 mmHg 87%
    06:00 +26°C° 0 mm 1 mps 757 mmHg 88%
    07:00 +28°C° 0 mm 1 mps 758 mmHg 77%
    08:00 +31°C° 0 mm 1 mps 758 mmHg 66%
    09:00 +33°C° 0 mm 1 mps 759 mmHg 55%
    10:00 +35°C° 0 mm 1 mps 758 mmHg 49%
    11:00 +37°C° 0 mm 2 mps 758 mmHg 44%
    12:00 +38°C° 0 mm 2 mps 757 mmHg 39%
    13:00 +38°C° 0 mm 3 mps 756 mmHg 41%
    14:00 +37°C° 0 mm 4 mps 756 mmHg 43%
    15:00 +36°C° 0 mm 4 mps 755 mmHg 45%
    16:00 +34°C° 0 mm 4 mps 755 mmHg 53%
    17:00 +33°C° 0 mm 4 mps 755 mmHg 61%
    18:00 +30°C° 0 mm 4 mps 755 mmHg 70%
    19:00 +29°C° 0 mm 4 mps 756 mmHg 73%
    20:00 +29°C° 0 mm 4 mps 756 mmHg 77%
    21:00 +29°C° 0 mm 4 mps 757 mmHg 80%
    22:00 +28°C° 0 mm 4 mps 756 mmHg 82%
    23:00 +28°C° 0 mm 3 mps 756 mmHg 85%

    Day after tomorrow, 23 January, Thursday

    Time Temperature Precipitation Wind Pressure Humidity
    00:00 +28°C° 0 mm 3 mps 756 mmHg 87%
    01:00 +27°C° 0 mm 3 mps 756 mmHg 88%
    02:00 +27°C° 0 mm 2 mps 756 mmHg 90%
    03:00 +27°C° 0 mm 2 mps 756 mmHg 91%
    04:00 +27°C° 0 mm 2 mps 756 mmHg 91%
    05:00 +27°C° 0 mm 2 mps 757 mmHg 92%
    06:00 +27°C° 0 mm 1 mps 757 mmHg 92%
    07:00 +29°C° 0 mm 1 mps 758 mmHg 82%
    08:00 +31°C° 0 mm 1 mps 758 mmHg 72%
    09:00 +33°C° 0 mm 1 mps 758 mmHg 62%
    10:00 +35°C° 0 mm 2 mps 758 mmHg 57%
    11:00 +36°C° 0 mm 2 mps 757 mmHg 52%
    12:00 +37°C° 0 mm 2 mps 757 mmHg 48%
    13:00 +36°C° 0 mm 3 mps 756 mmHg 48%
    14:00 +36°C° 0 mm 4 mps 755 mmHg 49%
    15:00 +36°C° 0 mm 5 mps 755 mmHg 50%
    16:00 +34°C° 0 mm 5 mps 755 mmHg 58%
    17:00 +32°C° 0 mm 5 mps 755 mmHg 67%
    18:00 +30°C° 0 mm 5 mps 755 mmHg 75%
    19:00 +29°C° 0 mm 5 mps 755 mmHg 77%
    20:00 +29°C° 0 mm 4 mps 756 mmHg 78%
    21:00 +29°C° 0 mm 4 mps 756 mmHg 80%
    22:00 +28°C° 0 mm 4 mps 756 mmHg 82%
    23:00 +28°C° 0 mm 4 mps 757 mmHg 84%

    24 January, Friday

    Time Temperature Precipitation Wind Pressure Humidity
    00:00 +28°C° 0 mm 3 mps 757 mmHg 86%
    01:00 +27°C° 0 mm 3 mps 756 mmHg 88%
    02:00 +27°C° 0 mm 2 mps 756 mmHg 90%
    03:00 +27°C° 0 mm 1 mps 756 mmHg 91%
    04:00 +27°C° 0 mm 1 mps 756 mmHg 91%
    05:00 +26°C° 0 mm 1 mps 756 mmHg 92%
    06:00 +26°C° 0 mm 1 mps 757 mmHg 92%
    07:00 +29°C° 0 mm 1 mps 757 mmHg 81%
    08:00 +31°C° 0 mm 1 mps 758 mmHg 70%
    09:00 +31°C° 0 mm 0 mps 758 mmHg 59%
    10:00 +35°C° 0 mm 1 mps 758 mmHg 52%
    11:00 +36°C° 0 mm 1 mps 757 mmHg 46%
    12:00 +39°C° 0 mm 1 mps 756 mmHg 39%
    13:00 +38°C° 0 mm 3 mps 756 mmHg 42%
    14:00 +37°C° 0 mm 4 mps 755 mmHg 46%
    15:00 +36°C° 0 mm 5 mps 754 mmHg 49%
    16:00 +34°C° 0 mm 5 mps 754 mmHg 56%
    17:00 +33°C° 0 mm 5 mps 754 mmHg 64%
    18:00 +30°C° 0 mm 4 mps 754 mmHg 71%
    19:00 +29°C° 0 mm 4 mps 755 mmHg 74%
    20:00 +29°C° 0 mm 4 mps 756 mmHg 77%
    21:00 +28°C° 0 mm 4 mps 756 mmHg 80%
    22:00 +28°C° 0 mm 3 mps 756 mmHg 83%
    23:00 +27°C° 0 mm 3 mps 756 mmHg 85%

    25 January, Saturday

    Time Temperature Precipitation Wind Pressure Humidity
    00:00 +27°C° 0 mm 2 mps 756 mmHg 87%
    01:00 +27°C° 0 mm 2 mps 756 mmHg 89%
    02:00 +26°C° 0 mm 2 mps 756 mmHg 90%
    03:00 +26°C° 0 mm 2 mps 756 mmHg 91%
    04:00 +26°C° 0 mm 1 mps 756 mmHg 91%
    05:00 +26°C° 0 mm 1 mps 757 mmHg 90%
    06:00 +26°C° 0 mm 1 mps 757 mmHg 90%
    07:00 +27°C° 0 mm 0 mps 758 mmHg 80%
    08:00 +29°C° 0 mm 0 mps 758 mmHg 69%
    09:00 +31°C° 0 mm 0 mps 758 mmHg 59%
    10:00 +32°C° 0 mm 0 mps 758 mmHg 55%
    11:00 +34°C° 0 mm 1 mps 757 mmHg 52%
    12:00 +36°C° 0 mm 2 mps 757 mmHg 49%
    13:00 +36°C° 0 mm 2 mps 756 mmHg 48%
    14:00 +36°C° 0 mm 3 mps 755 mmHg 47%
    15:00 +36°C° 0 mm 4 mps 755 mmHg 47%
    16:00 +34°C° 0 mm 4 mps 755 mmHg 54%
    17:00 +32°C° 0 mm 4 mps 755 mmHg 62%
    18:00 +29°C° 0 mm 5 mps 755 mmHg 70%
    19:00 +29°C° 0 mm 4 mps 756 mmHg 73%
    20:00 +29°C° 0 mm 4 mps 756 mmHg 76%
    21:00 +28°C° 0 mm 3 mps 757 mmHg 78%
    22:00 +28°C° 0 mm 3 mps 757 mmHg 80%
    23:00 +27°C° 0 mm 3 mps 757 mmHg 83%

    26 January, Sunday

    Time Temperature Precipitation Wind Pressure Humidity
    00:00 +27°C° 0 mm 3 mps 757 mmHg 85%
    01:00 +26°C° 0 mm 2 mps 757 mmHg 87%
    02:00 +26°C° 0 mm 2 mps 756 mmHg 88%
    03:00 +25°C° 0 mm 1 mps 756 mmHg 90%
    04:00 +25°C° 0 mm 1 mps 757 mmHg 90%
    05:00 +25°C° 0 mm 1 mps 757 mmHg 91%
    06:00 +25°C° 0 mm 1 mps 757 mmHg 91%
    07:00 +28°C° 0 mm 1 mps 758 mmHg 80%
    08:00 +28°C° 0 mm 0 mps 758 mmHg 68%
    09:00 +31°C° 0 mm 0 mps 759 mmHg 57%
    10:00 +34°C° 0 mm 1 mps 758 mmHg 51%
    11:00 +36°C° 0 mm 1 mps 758 mmHg 44%
    12:00 +38°C° 0 mm 2 mps 757 mmHg 38%
    13:00 +37°C° 0 mm 3 mps 757 mmHg 41%
    14:00 +36°C° 0 mm 4 mps 756 mmHg 44%
    15:00 +35°C° 0 mm 4 mps 755 mmHg 48%
    16:00 +34°C° 0 mm 4 mps 755 mmHg 55%
    17:00 +32°C° 0 mm 4 mps 755 mmHg 62%
    18:00 +29°C° 0 mm 4 mps 755 mmHg 70%
    19:00 +29°C° 0 mm 4 mps 756 mmHg 72%
    20:00 +29°C° 0 mm 4 mps 757 mmHg 74%
    21:00 +28°C° 0 mm 4 mps 757 mmHg 76%
    22:00 +28°C° 0 mm 4 mps 757 mmHg 79%
    23:00 +27°C° 0 mm 3 mps 757 mmHg 81%
    Show more